This is the latest recevied weather packets stored in our database for station/object DL6DJ-15. If no packets are shown the sender has not sent any weather packets the latest 10 day(s).
| Time | Temp. | Humidity | Pressure | Rain* | Wind** | Luminosity | Snow |
|---|---|---|---|---|---|---|---|
| 1777660131 | 12.78° C | 51% | 1026.3 hPa | - | - | - | - |
| 1777659830 | 13.33° C | 50% | 1026.3 hPa | - | - | - | - |
| 1777659529 | 13.89° C | 49% | 1026.2 hPa | - | - | - | - |
| 1777659229 | 13.89° C | 48% | 1026.2 hPa | - | - | - | - |
| 1777658929 | 14.44° C | 46% | 1026.2 hPa | - | - | - | - |
| 1777658628 | 15.56° C | 44% | 1026.1 hPa | - | - | - | - |
| 1777658328 | 16.11° C | 42% | 1026.1 hPa | - | - | - | - |
| 1777658028 | 17.22° C | 38% | 1026.1 hPa | - | - | - | - |
| 1777657727 | 18.33° C | 36% | 1026.1 hPa | - | - | - | - |
| 1777657427 | 18.89° C | 31% | 1026.1 hPa | - | - | - | - |
| 1777657127 | 18.89° C | 30% | 1026.1 hPa | - | - | - | - |
| 1777656826 | 18.89° C | 29% | 1026 hPa | - | - | - | - |
| 1777656526 | 18.89° C | 30% | 1026 hPa | - | - | - | - |
| 1777656226 | 19.44° C | 29% | 1026 hPa | - | - | - | - |
| 1777655925 | 19.44° C | 29% | 1026 hPa | - | - | - | - |
| 1777655625 | 19.44° C | 29% | 1026 hPa | - | - | - | - |
| 1777655324 | 19.44° C | 28% | 1026 hPa | - | - | - | - |
| 1777655024 | 19.44° C | 28% | 1026.1 hPa | - | - | - | - |
| 1777654723 | 19.44° C | 27% | 1026.2 hPa | - | - | - | - |
| 1777654423 | 19.44° C | 28% | 1026.2 hPa | - | - | - | - |
| 1777654123 | 19.44° C | 28% | 1026.2 hPa | - | - | - | - |
| 1777653822 | 19.44° C | 27% | 1026.3 hPa | - | - | - | - |
| 1777653522 | 19.44° C | 27% | 1026.4 hPa | - | - | - | - |
| 1777653221 | 19.44° C | 29% | 1026.3 hPa | - | - | - | - |
| 1777652921 | 19.44° C | 28% | 1026.5 hPa | - | - | - | - |
* Rain since midnight (hover to see other rain measurements)
** Current wind speed in m/s (hover to see current wind gust speed)